Tracking 28790 objects as of 19-Apr-2024
HD Live streaming from Space Station
objects crossing your sky now

TITAN 3C TRANSTAGE DEB

Track TITAN 3C TRANSTAGE DEB now!


NORAD ID: 43515
Int'l Code: 1969-013T
Perigee: 35,898.5 km
Apogee: 38,509.6 km
Inclination: 0.9 °
Period: 1,508.7 minutes
Semi major axis: 43575 km
RCS: Unknown
Launch date: February 9, 1969
Source: United States (US)
Launch site: ()

Note: This is SATELLITE DEBRIS
Your satellite tracking list
Your tracking list is empty




NASA's NSSDC Master Catalog

Two Line Element Set (TLE):
1 43515U 69013T   24108.23839788 -.00000123  00000-0  00000-0 0  9997
2 43515   0.8905 331.2397 0299614 220.3602 167.6743  0.95443538 20676
Source of the keplerian elements: AFSPC